Regional Weather Roundup
Issued by NWS

Home | Current Version | Previous Version | Text Only | Print | Product List | Glossary On
Versions: 1 2 3 4 5 6 7 8 9 10 11 12 13 14 15 16 17 18 19 20 21 22 23 24 25 26 27 28 29 30 31 32 33 34 35 36 37 38 39 40 41 42 43 44 45 46 47 48 49 50
385
ASUS43 KTOP 110308
RWRKS

WEATHER ROUNDUP FOR KANSAS
NATIONAL WEATHER SERVICE GOODLAND KS
900 PM CST SAT DEC 10 2016

NOTE:  "FAIR" INDICATES FEW OR NO CLOUDS BELOW 12,000 FEET WITH NO
SIGNIFICANT WEATHER AND/OR OBSTRUCTIONS TO VISIBILITY.

KSZ001>006-013>018-027>032-041>047-110400-
NORTHWEST KANSAS

CITY           SKY/WX    TMP DP  RH WIND       PRES   REMARKS
GOODLAND       CLOUDY    30  24  78 S8        29.73F
HAYS           CLOUDY    31  26  82 SE10      29.77F WCI  22
HILL CITY      CLOUDY    31  24  75 S7        29.78F
RUSSELL        CLOUDY    35  26  69 S16       29.78F WCI  25
$$

KSZ061>065-074>080-084>089-110400-
SOUTHWEST KANSAS

CITY           SKY/WX    TMP DP  RH WIND       PRES   REMARKS
DODGE CITY     CLOUDY    39  32  76 S23       29.72F WCI  28
ELKHART          N/A     53  24  32 SW12        N/A
GARDEN CITY    CLOUDY    38  30  73 S12       29.68F WCI  30
GREAT BEND     CLOUDY    36  28  73 SE15      29.78F WCI  27
LIBERAL        CLOUDY    50  34  53 S16       29.70F
PRATT          CLOUDY    35  28  74 S21       29.79F WCI  24
$$

KSZ066>073-081>083-090>101-110400-
SOUTHEAST KANSAS

CITY           SKY/WX    TMP DP  RH WIND       PRES   REMARKS
CHANUTE        CLOUDY    39  20  46 S16       29.99F WCI  30
COFFEYVILLE    CLOUDY    42  26  53 S15G23    30.03F
HUTCHINSON     CLOUDY    38  27  64 S17       29.86F WCI  28
MEDICINE LODGE   N/A     37  29  72 SE13      29.83F WCI  29
NEWTON         CLOUDY    35  24  64 S17       29.88F WCI  25
PARSONS        CLOUDY    40  21  46 S10       30.03F WCI  33
WICHITA INTL   CLOUDY    37  24  59 SE20      29.89F WCI  27
WICHITA JABRA  CLOUDY    36  24  62 S18       29.90F WCI  26
WICHITA MCCONL CLOUDY    36  24  61 S15       29.90F WCI  26
WINFIELD       CLOUDY    35  24  64 SE10      29.96F WCI  27
$$

KSZ007>012-019>026-033>040-048>060-102>105-110400-
NORTHEAST KANSAS

CITY           SKY/WX    TMP DP  RH WIND       PRES   REMARKS
CONCORDIA      CLOUDY    32  24  72 SE7       29.87F
EMPORIA        CLOUDY    36  21  54 S14       29.94F WCI  27
LAWRENCE       CLOUDY    35  22  58 E8        30.00F
MANHATTAN      CLOUDY    35  21  56 SE5       29.93F
MARYSVILLE     CLOUDY    32  23  69 SE10      29.92F WCI  24
OLATHE IND     CLOUDY    38  20  48 SE10      30.00F WCI  31
OLATHE EXE     CLOUDY    36  21  54 S10       30.01F WCI  28
SALINA         CLOUDY    37  26  64 SE14      29.87F WCI  28
TOPEKA BILLARD CLOUDY    35  21  56 E7        29.98F
TOPEKA FORBES  CLOUDY    38  20  48 SE8       29.97F
$$




USA.gov is the U.S. government's official web portal to all federal, state and local government web resources and services.